period_start,C,m1,H,J0,J1,J2,J3,J4,J5,JA,JB,JC,JD,JJ,JK,JN,#
2016-08-23 00:04:42,0.00,0.57,0.00,23.58,29.03,32.18,14.46,48.64,1009.78,2029.02,3215.10,2947.07,3322.02,599.80,590.70,55.35,0000 0000 0000 0000 000000
2016-08-23 00:09:43,0.01,0.57,0.00,23.46,29.02,32.15,14.47,48.63,1009.77,2029.03,3215.02,2947.03,3322.00,599.60,590.72,55.40,0000 0000 0000 0000 000000
2016-08-23 00:14:44,-0.00,0.57,0.00,23.52,29.02,32.24,14.47,48.55,1009.71,2029.05,3215.01,2947.01,3322.00,599.71,590.67,55.45,0000 0000 0000 0000 000000
2016-08-23 00:19:46,-0.00,0.57,0.00,23.61,29.04,32.24,14.47,48.57,1009.56,2029.03,3215.03,2947.01,3322.00,600.37,591.03,55.50,0000 0000 0000 0000 000000
2016-08-23 00:24:47,0.00,0.57,0.00,23.64,29.05,32.19,14.45,48.62,1009.36,2029.02,3215.04,2947.02,3322.00,599.95,590.43,55.55,0000 0000 0000 0000 000000
2016-08-23 00:29:48,0.00,0.57,0.00,23.67,29.05,32.21,14.50,48.58,1009.31,2029.02,3215.01,2947.01,3322.00,600.17,590.55,55.60,0000 0000 0000 0000 000000
2016-08-23 00:34:50,0.00,0.57,0.00,23.69,29.06,32.22,14.54,48.80,1009.29,2029.00,3215.01,2947.00,3321.99,599.91,590.23,55.65,0000 0000 0000 0000 000000
2016-08-23 00:39:51,0.00,0.57,0.00,23.73,29.07,32.24,14.47,48.72,1009.29,2029.00,3215.02,2947.00,3321.99,599.77,590.06,55.70,0000 0000 0000 0000 000000
2016-08-23 00:44:52,0.00,0.57,0.00,23.78,29.07,32.25,14.43,48.62,1009.29,2029.00,3215.00,2947.00,3321.97,599.95,590.10,55.75,0000 0000 0000 0000 000000
2016-08-23 00:49:54,0.00,0.57,0.00,23.82,29.09,32.28,14.54,48.77,1009.29,2029.00,3215.00,2946.99,3321.94,600.40,590.35,55.80,0000 0000 0000 0000 000000
2016-08-23 00:54:55,0.00,0.57,0.00,23.75,29.10,32.27,14.43,48.79,1009.28,2029.00,3215.00,2946.98,3321.84,599.97,590.28,55.85,0000 0000 0000 0000 000000
2016-08-23 00:59:57,0.01,0.57,0.00,23.74,29.10,32.26,14.42,48.67,1009.28,2028.99,3215.00,2946.96,3321.60,599.65,589.92,55.90,0000 0000 0000 0000 000000
2016-08-23 01:04:58,0.00,0.57,0.00,23.80,29.11,32.30,14.42,48.76,1009.27,2028.99,3214.99,2946.95,3321.28,599.91,590.15,55.95,0000 0000 0000 0000 000000
2016-08-23 01:09:59,0.00,0.57,0.00,23.76,29.12,32.29,14.46,48.67,1009.18,2028.98,3214.98,2946.92,3321.13,599.56,589.80,56.00,0000 0000 0000 0000 000000
2016-08-23 01:15:01,-0.00,0.57,0.00,23.76,29.12,32.28,14.43,48.77,1008.98,2028.97,3214.97,2946.81,3321.04,599.92,589.96,56.05,0000 0000 0000 0000 000000
2016-08-23 01:20:02,0.00,0.57,0.00,23.75,29.12,32.29,14.50,48.66,1008.83,2028.99,3214.91,2946.71,3321.04,600.02,590.08,56.10,0000 0000 0000 0000 000000
2016-08-23 01:25:03,0.01,0.57,0.00,23.78,29.12,32.26,14.47,48.56,1008.81,2028.99,3214.75,2946.41,3321.01,600.29,590.35,56.15,0000 0000 0000 0000 000000
2016-08-23 01:30:04,0.00,0.57,0.00,23.80,29.12,32.27,14.47,48.76,1008.80,2028.96,3214.47,2946.19,3321.00,599.94,589.80,56.20,0000 0000 0000 0000 000000
2016-08-23 01:35:06,-0.02,0.57,0.00,23.83,29.13,32.32,14.44,48.79,1008.80,2028.92,3214.82,2946.26,3321.00,599.67,589.52,56.26,0000 0000 0000 0000 000000
2016-08-23 01:40:07,0.02,0.57,0.00,23.82,29.15,32.33,14.48,48.67,1008.78,2028.94,3214.55,2946.16,3321.01,600.21,590.01,56.31,0000 0000 0000 0000 000000
2016-08-23 01:45:08,0.00,0.57,0.00,23.84,29.15,32.33,14.37,48.62,1008.64,2028.88,3214.15,2946.04,3321.00,599.85,589.59,56.36,0000 0000 0000 0000 000000
2016-08-23 01:50:09,-0.01,0.57,0.00,23.83,29.15,32.34,14.41,48.67,1008.38,2028.73,3214.09,2946.01,3320.97,599.59,589.04,56.41,0000 0000 0000 0000 000000
2016-08-23 01:55:11,0.02,0.57,0.00,23.88,29.15,32.36,14.45,48.70,1008.33,2028.84,3214.04,2946.02,3320.99,599.97,589.33,56.46,0000 0000 0000 0000 000000
2016-08-23 02:00:12,-0.02,0.57,0.00,23.87,29.15,32.38,14.44,48.64,1008.32,2028.68,3214.01,2946.01,3320.96,599.81,589.29,56.51,0000 0000 0000 0000 000000
2016-08-23 02:05:13,-0.03,0.57,0.00,23.86,29.16,32.40,14.35,48.63,1008.28,2028.39,3214.01,2946.00,3320.85,599.88,589.46,56.56,0000 0000 0000 0000 000000
2016-08-23 02:10:15,-0.01,0.57,0.00,23.87,29.17,32.41,14.43,48.56,1008.20,2028.16,3214.00,2946.00,3320.56,600.00,589.34,56.61,0000 0000 0000 0000 000000
2016-08-23 02:15:16,0.00,0.57,0.00,23.87,29.17,32.40,14.44,48.61,1008.13,2028.14,3213.99,2946.00,3320.30,599.69,588.99,56.66,0000 0000 0000 0000 000000
2016-08-23 02:20:17,-0.00,0.57,0.00,23.91,29.17,32.42,14.43,48.60,1007.94,2028.04,3213.97,2945.99,3320.05,600.03,589.23,56.71,0000 0000 0000 0000 000000
2016-08-23 02:25:18,-0.00,0.57,0.00,23.91,29.17,32.43,14.44,48.63,1007.86,2028.04,3213.86,2945.96,3320.01,600.11,589.15,56.76,0000 0000 0000 0000 000000
2016-08-23 02:30:20,0.00,0.57,0.00,23.90,29.17,32.43,14.48,48.69,1007.84,2028.03,3213.91,2945.96,3320.01,600.42,589.51,56.81,0000 0000 0000 0000 000000
2016-08-23 02:35:21,0.00,0.57,0.00,23.90,29.17,32.43,14.44,48.49,1007.83,2028.02,3213.81,2945.90,3320.00,599.93,589.06,56.86,0000 0000 0000 0000 000000
2016-08-23 02:40:22,0.01,0.57,0.00,23.93,29.18,32.45,14.44,48.54,1007.83,2028.02,3213.69,2945.90,3320.00,600.09,589.05,56.91,0000 0000 0000 0000 000000
2016-08-23 02:45:23,0.01,0.57,0.00,23.91,29.19,32.46,14.49,48.57,1007.82,2028.00,3213.32,2945.67,3320.00,600.39,589.33,56.96,0000 0000 0000 0000 000000
2016-08-23 02:50:24,0.00,0.57,0.00,23.92,29.20,32.44,14.45,48.64,1007.73,2028.00,3213.24,2945.42,3319.99,599.44,588.43,57.01,0000 0000 0000 0000 000000
2016-08-23 02:55:26,0.01,0.57,0.00,23.91,29.20,32.43,14.38,48.77,1007.45,2028.00,3213.13,2945.20,3319.99,600.20,589.06,57.06,0000 0000 0000 0000 000000
2016-08-23 03:00:27,-0.00,0.57,0.00,23.97,29.20,32.21,14.43,48.55,1007.36,2028.00,3213.09,2945.18,3319.98,600.50,589.15,57.11,0000 0000 0000 0000 000000
2016-08-23 03:05:28,0.00,0.57,0.00,23.98,29.20,32.08,14.45,48.67,1007.35,2028.00,3213.05,2945.09,3319.94,600.58,589.16,57.16,0000 0000 0000 0000 000000
2016-08-23 03:10:30,0.00,0.57,0.00,23.80,29.20,32.17,14.38,48.63,1007.34,2028.00,3213.01,2945.02,3319.74,599.58,588.59,57.21,0000 0000 0000 0000 000000
2016-08-23 03:15:31,-0.00,0.57,0.00,23.61,29.20,32.39,14.45,48.68,1007.34,2028.00,3213.00,2945.01,3319.49,599.86,589.25,57.27,0000 0000 0000 0000 000000
2016-08-23 03:20:32,0.00,0.57,0.00,23.67,29.20,32.38,14.46,48.89,1007.34,2028.00,3212.99,2945.01,3319.60,600.14,589.37,57.32,0000 0000 0000 0000 000000
2016-08-23 03:25:33,0.00,0.57,0.00,23.80,29.20,32.40,14.38,48.77,1007.12,2028.00,3212.99,2945.01,3319.39,599.71,588.50,57.37,0000 0000 0000 0000 000000
2016-08-23 03:30:35,-0.00,0.57,0.00,23.89,29.20,32.41,14.45,48.88,1006.91,2028.00,3212.99,2945.02,3319.36,600.33,588.99,57.42,0000 0000 0000 0000 000000
2016-08-23 03:35:36,0.00,0.57,0.00,23.89,29.20,32.42,14.45,48.81,1006.88,2028.00,3212.98,2945.01,3319.31,599.81,588.50,57.47,0000 0000 0000 0000 000000
2016-08-23 03:40:38,-0.00,0.57,0.00,23.96,29.20,32.17,14.40,48.60,1006.86,2028.00,3212.96,2945.00,3319.09,599.95,588.39,57.52,0000 0000 0000 0000 000000
2016-08-23 03:45:39,0.00,0.57,0.00,23.94,29.20,32.10,14.39,48.82,1006.85,2028.00,3212.75,2945.00,3319.01,600.04,588.46,57.57,0000 0000 0000 0000 000000
2016-08-23 03:50:41,0.00,0.57,0.00,23.89,29.20,32.17,14.38,48.67,1006.82,2028.01,3212.52,2944.99,3319.01,600.10,588.63,57.62,0000 0000 0000 0000 000000
2016-08-23 03:55:42,-0.00,0.57,0.00,23.91,29.20,32.19,14.43,48.74,1006.76,2028.01,3212.75,2944.99,3319.02,599.93,588.41,57.67,0000 0000 0000 0000 000000
2016-08-23 04:00:43,0.00,0.57,0.00,23.93,29.20,32.19,14.46,48.63,1006.62,2028.00,3212.69,2944.99,3319.00,600.38,588.78,57.72,0000 0000 0000 0000 000000
2016-08-23 04:05:44,0.00,0.57,0.00,23.94,29.20,32.22,14.42,48.44,1006.46,2028.02,3212.36,2944.99,3319.01,600.48,588.60,57.77,0000 0000 0000 0000 000000
2016-08-23 04:10:45,0.00,0.57,0.00,24.00,29.20,32.19,14.37,48.66,1006.40,2028.01,3212.51,2944.99,3319.00,600.08,588.14,57.82,0000 0000 0000 0000 000000
2016-08-23 04:15:47,0.00,0.57,0.00,24.11,29.20,32.03,14.33,48.44,1006.39,2028.01,3212.25,2944.99,3319.00,599.81,587.69,57.87,0000 0000 0000 0000 000000
2016-08-23 04:20:48,-0.00,0.57,0.00,24.03,29.20,32.00,14.37,48.63,1006.37,2028.00,3212.10,2944.97,3319.00,599.86,587.74,57.92,0000 0000 0000 0000 000000
2016-08-23 04:25:50,0.00,0.57,0.00,24.00,29.20,32.06,14.39,48.71,1006.36,2028.00,3212.00,2944.95,3318.98,599.95,587.99,57.97,0000 0000 0000 0000 000000
2016-08-23 04:30:51,0.00,0.57,0.00,24.00,29.20,32.06,14.35,48.66,1006.36,2028.00,3212.00,2944.91,3318.93,600.13,588.16,58.02,0000 0000 0000 0000 000000
2016-08-23 04:35:52,0.01,0.58,0.00,24.02,29.20,32.08,14.38,48.63,1006.35,2028.00,3212.00,2944.74,3318.74,600.32,588.25,58.07,0000 0000 0000 0000 000000
2016-08-23 04:40:54,0.01,0.58,0.00,24.06,29.20,32.05,14.37,48.61,1006.31,2028.00,3211.99,2944.37,3318.23,600.28,588.11,58.13,0000 0000 0000 0000 000000
2016-08-23 04:45:55,0.01,0.58,0.00,24.15,29.21,32.00,14.32,48.58,1006.11,2027.99,3211.97,2944.15,3318.05,599.76,587.33,58.18,0000 0000 0000 0000 000000
2016-08-23 04:50:56,0.00,0.58,0.00,24.08,29.21,32.01,14.26,48.44,1005.92,2027.99,3211.94,2944.05,3318.02,599.58,587.19,58.23,0000 0000 0000 0000 000000
2016-08-23 04:55:57,0.00,0.58,0.00,24.05,29.20,32.06,14.42,48.64,1005.88,2027.99,3211.75,2944.02,3318.00,600.06,587.64,58.28,0000 0000 0000 0000 000000
2016-08-23 05:00:59,-0.00,0.58,0.00,24.09,29.20,32.02,14.35,48.73,1005.89,2027.99,3211.68,2944.02,3318.00,599.63,587.39,58.33,0000 0000 0000 0000 000000
2016-08-23 05:06:00,0.01,0.58,0.00,24.15,29.20,32.00,14.36,48.60,1005.87,2027.99,3211.30,2944.00,3318.00,600.10,587.55,58.38,0000 0000 0000 0000 000000
2016-08-23 05:11:01,-0.00,0.58,0.00,24.11,29.20,32.01,14.40,48.67,1005.87,2027.98,3211.05,2944.00,3318.00,600.32,587.91,58.43,0000 0000 0000 0000 000000
2016-08-23 05:16:02,0.00,0.58,0.00,24.12,29.20,31.99,14.41,48.54,1005.87,2027.98,3211.02,2944.00,3317.98,600.26,587.90,58.48,0000 0000 0000 0000 000000
2016-08-23 05:21:03,-0.00,0.58,0.00,24.18,29.20,31.97,14.33,48.39,1005.87,2027.98,3210.99,2944.00,3317.96,600.23,587.54,58.53,0000 0000 0000 0000 000000
2016-08-23 05:26:04,0.00,0.58,0.00,24.13,29.20,31.98,14.40,48.60,1005.86,2027.99,3210.98,2943.99,3317.73,600.07,587.55,58.58,0000 0000 0000 0000 000000
2016-08-23 05:31:06,-0.00,0.58,0.00,24.18,29.20,31.98,14.34,48.42,1005.78,2027.99,3210.95,2943.99,3317.57,599.81,587.20,58.63,0000 0000 0000 0000 000000
2016-08-23 05:36:07,0.00,0.58,0.00,24.23,29.20,31.98,14.26,48.45,1005.59,2027.99,3210.87,2943.99,3317.31,599.90,587.04,58.68,0000 0000 0000 0000 000000
2016-08-23 05:41:08,0.01,0.58,0.00,24.21,29.20,31.97,14.35,48.48,1005.42,2027.98,3210.43,2943.94,3317.05,599.88,586.96,58.73,0000 0000 0000 0000 000000
2016-08-23 05:46:09,-0.00,0.58,0.00,24.26,29.20,31.95,14.38,48.54,1005.40,2027.98,3210.55,2943.97,3317.02,599.92,586.87,58.78,0000 0000 0000 0000 000000
2016-08-23 05:51:11,0.00,0.58,0.00,24.27,29.20,31.95,14.35,48.58,1005.39,2027.97,3210.14,2943.81,3317.00,599.82,586.75,58.83,0000 0000 0000 0000 000000
2016-08-23 05:56:12,0.01,0.58,0.00,24.24,29.20,32.05,14.31,48.41,1005.39,2027.96,3210.01,2943.30,3317.00,599.99,587.13,58.88,0000 0000 0000 0000 000000
2016-08-23 06:01:14,-0.00,0.58,0.00,24.27,29.20,32.07,14.33,48.63,1005.39,2027.97,3210.00,2943.42,3317.00,600.07,586.91,58.93,0000 0000 0000 0000 000000
2016-08-23 06:06:15,-0.00,0.58,0.00,24.27,29.19,32.04,14.40,48.50,1005.31,2027.98,3210.00,2943.45,3317.00,600.11,587.00,58.98,0000 0000 0000 0000 000000
2016-08-23 06:11:16,0.00,0.58,0.00,24.27,29.18,32.06,14.31,48.52,1005.13,2027.96,3210.00,2943.24,3316.99,600.16,586.91,59.03,0000 0000 0000 0000 000000
2016-08-23 06:16:18,0.00,0.58,0.00,24.30,29.17,31.95,14.41,48.63,1005.06,2027.97,3209.99,2943.30,3316.99,600.03,586.66,59.08,0000 0000 0000 0000 000000
2016-08-23 06:21:19,0.00,0.58,0.00,24.30,29.17,31.98,14.36,48.48,1004.90,2027.97,3209.92,2943.05,3316.94,599.81,586.43,59.13,0000 0000 0000 0000 000000
2016-08-23 06:26:20,0.00,0.58,0.00,24.33,29.17,31.98,14.23,48.47,1004.90,2027.97,3209.85,2943.04,3316.96,599.61,586.19,59.19,0000 0000 0000 0000 000000
2016-08-23 06:31:21,0.01,0.58,0.00,24.33,29.17,32.00,14.36,48.48,1004.90,2027.99,3209.63,2943.01,3316.89,600.07,586.56,59.24,0000 0000 0000 0000 000000
2016-08-23 06:36:22,0.00,0.58,0.00,24.33,29.15,31.97,14.31,48.49,1004.90,2027.99,3209.28,2943.02,3316.84,599.84,586.24,59.29,0000 0000 0000 0000 000000
2016-08-23 06:41:23,0.00,0.58,0.00,24.35,29.15,32.01,14.33,48.63,1004.88,2027.99,3209.16,2943.01,3316.73,599.77,586.30,59.34,0000 0000 0000 0000 000000
2016-08-23 06:46:24,0.00,0.58,0.00,24.37,29.15,31.97,14.34,48.34,1004.80,2027.99,3209.01,2943.00,3316.38,600.09,586.49,59.39,0000 0000 0000 0000 000000
2016-08-23 06:51:26,0.00,0.58,0.00,24.37,29.15,31.88,14.39,48.45,1004.55,2027.99,3209.00,2943.00,3316.23,600.46,586.60,59.44,0000 0000 0000 0000 000000
2016-08-23 06:56:27,-0.01,0.58,0.00,24.37,29.15,31.89,14.33,48.41,1004.42,2027.99,3209.08,2943.03,3316.72,599.57,585.78,59.49,0000 0000 0000 0000 000000
2016-08-23 07:01:28,0.00,0.58,0.00,24.39,29.15,31.81,14.37,48.51,1004.42,2028.01,3209.05,2943.02,3316.78,600.71,586.86,59.54,0000 0000 0000 0000 000000
2016-08-23 07:06:29,0.00,0.58,0.00,24.39,29.14,31.83,14.30,48.53,1004.41,2028.01,3209.01,2943.01,3316.59,599.96,586.21,59.59,0000 0000 0000 0000 000000
2016-08-23 07:11:31,0.00,0.58,0.00,24.40,29.13,31.82,14.31,48.42,1004.41,2028.00,3209.00,2943.00,3316.24,599.88,585.97,59.64,0000 0000 0000 0000 000000
2016-08-23 07:16:32,0.00,0.58,0.00,24.40,29.13,31.82,14.30,48.35,1004.41,2028.00,3208.99,2943.00,3316.09,599.87,586.00,59.69,0000 0000 0000 0000 000000
2016-08-23 07:21:33,0.00,0.58,0.00,24.42,29.12,31.78,14.30,48.37,1004.41,2028.01,3208.96,2943.00,3316.01,600.36,586.48,59.74,0000 0000 0000 0000 000000
2016-08-23 07:26:34,0.00,0.58,0.00,24.41,29.12,31.79,14.29,48.40,1004.41,2028.01,3208.90,2943.00,3316.01,599.94,585.97,59.79,0000 0000 0000 0000 000000
2016-08-23 07:31:36,0.00,0.58,0.00,24.45,29.12,31.76,14.31,48.41,1004.41,2028.03,3208.69,2942.99,3316.00,600.06,586.01,59.84,0000 0000 0000 0000 000000
2016-08-23 07:36:37,0.01,0.58,0.00,24.46,29.12,31.77,14.30,48.42,1004.40,2028.01,3208.15,2942.96,3315.99,599.87,585.82,59.89,0000 0000 0000 0000 000000
2016-08-23 07:41:38,0.01,0.58,0.00,24.47,29.12,31.78,14.24,48.38,1004.22,2028.02,3208.01,2942.78,3315.98,599.85,585.82,59.94,0000 0000 0000 0000 000000
2016-08-23 07:46:39,0.01,0.58,0.00,24.48,29.12,31.76,14.28,48.35,1004.21,2028.01,3208.00,2942.29,3315.87,599.91,585.80,59.99,0000 0000 0000 0000 000000
2016-08-23 07:51:41,0.00,0.58,0.00,24.48,29.12,31.75,14.25,48.21,1004.13,2028.04,3207.99,2942.11,3315.66,599.95,585.76,60.04,0000 0000 0000 0000 000000
2016-08-23 07:56:42,0.01,0.59,0.00,24.51,29.12,31.75,14.27,48.39,1003.96,2028.04,3207.91,2942.02,3315.17,599.93,585.67,60.09,0000 0000 0000 0000 000000
2016-08-23 08:01:43,0.02,0.18,0.00,24.53,29.13,31.72,12.54,41.96,1003.94,2028.71,3403.54,3083.44,3496.43,530.68,516.98,0.03,0000 0000 0000 0000 000002
2016-08-23 08:06:45,0.02,0.00,0.00,24.56,29.12,31.73,14.28,47.32,1003.93,2029.00,3483.51,3142.81,3573.41,600.09,585.65,0.04,0000 0000 0000 0000 000000
2016-08-23 08:11:46,0.02,0.00,0.00,24.57,29.12,31.75,14.20,47.40,1003.93,2029.00,3482.41,3142.11,3572.87,599.94,585.34,0.10,0000 0000 0000 0000 000000
2016-08-23 08:16:47,0.02,0.00,0.00,24.60,29.12,31.73,14.24,47.41,1003.92,2029.00,3481.88,3142.00,3572.08,600.03,585.45,0.15,0000 0000 0000 0000 000000
2016-08-23 08:21:49,0.01,0.00,0.00,24.60,29.12,31.73,14.22,47.46,1003.92,2029.00,3481.12,3141.99,3571.97,600.06,585.45,0.20,0000 0000 0000 0000 000000
2016-08-23 08:26:50,0.01,0.00,0.00,24.62,29.12,31.72,14.27,47.56,1003.92,2029.00,3481.00,3141.90,3571.39,599.99,585.38,0.25,0000 0000 0000 0000 000000
2016-08-23 08:31:51,0.02,0.00,0.00,24.62,29.13,31.72,14.18,47.61,1003.92,2029.00,3480.70,3141.32,3571.01,599.70,585.12,0.30,0000 0000 0000 0000 000000
2016-08-23 08:36:53,0.01,0.00,0.00,24.62,29.15,31.72,14.22,47.66,1003.92,2029.00,3480.07,3141.01,3570.97,600.02,585.49,0.35,0000 0000 0000 0000 000000
2016-08-23 08:41:54,0.01,0.00,0.00,24.62,29.15,31.72,14.24,47.57,1003.92,2029.00,3480.00,3141.00,3570.56,599.98,585.41,0.40,0000 0000 0000 0000 000000
2016-08-23 08:46:55,0.01,0.00,0.00,24.62,29.15,31.72,14.22,47.62,1003.92,2029.00,3479.70,3140.96,3570.02,599.92,585.40,0.45,0000 0000 0000 0000 000000
2016-08-23 08:51:56,0.01,0.00,0.00,24.62,29.15,31.73,14.23,47.63,1003.90,2028.99,3479.07,3140.72,3569.91,599.74,585.21,0.50,0000 0000 0000 0000 000000
2016-08-23 08:56:57,0.01,0.01,0.00,24.64,29.15,31.76,14.34,47.83,1003.88,2028.99,3479.01,3140.41,3569.52,600.04,585.36,0.55,0000 0000 0000 0000 000000
2016-08-23 09:01:59,0.01,0.01,0.00,24.64,29.16,31.76,14.15,47.73,1003.91,2028.99,3478.99,3140.14,3569.07,599.75,585.06,0.60,0000 0000 0000 0000 000000
2016-08-23 09:07:00,0.00,0.01,0.00,24.65,29.17,31.74,14.23,47.77,1003.92,2028.99,3478.67,3140.02,3569.00,599.63,584.83,0.65,0000 0000 0000 0000 000000
2016-08-23 09:12:01,0.00,0.01,0.00,24.64,29.17,31.76,14.23,47.74,1003.90,2028.99,3478.24,3140.00,3568.99,599.96,585.28,0.70,0000 0000 0000 0000 000000
2016-08-23 09:17:03,0.00,0.01,0.00,24.66,29.17,31.76,14.16,47.82,1003.88,2028.98,3478.01,3140.00,3568.83,599.62,585.10,0.75,0000 0000 0000 0000 000000
2016-08-23 09:22:04,0.01,0.01,0.00,24.68,29.17,31.77,14.24,47.81,1003.63,2028.99,3477.99,3139.98,3568.29,599.83,584.97,0.80,0000 0000 0000 0000 000000
2016-08-23 09:27:05,0.00,0.01,0.00,24.68,29.17,31.76,14.27,47.68,1003.46,2028.98,3477.95,3139.94,3568.01,600.38,585.39,0.85,0000 0000 0000 0000 000000
2016-08-23 09:32:07,0.01,0.01,0.00,24.68,29.16,31.76,14.26,47.72,1003.43,2028.99,3477.55,3139.77,3568.00,599.85,584.86,0.90,0000 0000 0000 0000 000000
2016-08-23 09:37:08,0.01,0.01,0.00,24.69,29.15,31.76,14.28,47.47,1003.43,2028.99,3477.04,3139.25,3567.99,600.24,585.17,0.95,0000 0000 0000 0000 000000
2016-08-23 09:42:09,0.00,0.01,0.00,24.69,29.15,31.78,14.29,47.59,1003.43,2028.99,3477.00,3139.04,3567.81,600.03,584.95,1.00,0000 0000 0000 0000 000000
2016-08-23 09:47:10,0.01,0.01,0.00,24.70,29.15,31.81,14.24,47.55,1003.43,2028.98,3476.99,3139.00,3567.14,599.87,584.86,1.05,0000 0000 0000 0000 000000
2016-08-23 09:52:12,0.00,0.01,0.00,24.70,29.15,31.79,14.23,47.69,1003.43,2028.99,3476.96,3139.00,3567.06,599.98,584.87,1.10,0000 0000 0000 0000 000000
2016-08-23 09:57:13,0.00,0.01,0.00,24.70,29.15,31.79,14.23,47.72,1003.43,2028.99,3476.91,3139.00,3567.01,600.19,585.37,1.15,0000 0000 0000 0000 000000
2016-08-23 10:02:14,0.00,0.01,0.00,24.70,29.13,31.77,14.32,47.65,1003.43,2028.99,3476.44,3139.00,3567.00,600.18,585.16,1.20,0000 0000 0000 0000 000000
2016-08-23 10:07:15,0.00,0.01,0.00,24.70,29.12,31.78,14.21,47.70,1003.42,2028.99,3476.06,3138.99,3566.99,600.13,585.00,1.25,0000 0000 0000 0000 000000
2016-08-23 10:12:16,0.00,0.01,0.00,24.70,29.12,31.76,14.20,47.63,1003.39,2028.99,3476.01,3138.99,3566.97,599.99,584.87,1.30,0000 0000 0000 0000 000000
2016-08-23 10:17:18,0.00,0.01,0.00,24.70,29.10,31.75,14.28,47.61,1003.24,2028.99,3476.00,3138.99,3566.94,600.14,585.02,1.35,0000 0000 0000 0000 000000
2016-08-23 10:22:19,0.00,0.01,0.00,24.72,29.10,31.74,14.22,47.56,1003.13,2028.99,3476.00,3138.98,3566.83,600.24,585.05,1.40,0000 0000 0000 0000 000000
2016-08-23 10:27:20,0.00,0.01,0.00,24.72,29.09,31.79,14.22,47.52,1003.03,2028.99,3476.00,3138.97,3566.63,599.66,584.45,1.45,0000 0000 0000 0000 000000
2016-08-23 10:32:22,0.00,0.01,0.00,24.73,29.07,31.71,14.26,47.46,1003.00,2028.99,3475.99,3138.96,3566.27,599.93,584.60,1.50,0000 0000 0000 0000 000000
2016-08-23 10:37:23,0.00,0.01,0.00,24.75,29.07,31.65,14.20,47.57,1002.97,2028.99,3475.99,3138.97,3566.16,600.09,584.55,1.55,0000 0000 0000 0000 000000
2016-08-23 10:42:25,0.00,0.01,0.00,24.77,29.06,31.63,14.28,47.47,1002.95,2029.00,3475.94,3138.96,3566.10,599.94,584.47,1.60,0000 0000 0000 0000 000000
2016-08-23 10:47:26,0.00,0.01,0.00,24.78,29.05,31.62,14.12,47.43,1002.94,2029.00,3475.70,3138.91,3566.03,599.65,584.17,1.65,0000 0000 0000 0000 000000
2016-08-23 10:52:27,0.00,0.01,0.00,24.81,29.05,31.62,14.25,47.52,1002.94,2029.01,3475.60,3138.92,3566.02,599.95,584.45,1.70,0000 0000 0000 0000 000000
2016-08-23 10:57:29,0.01,0.01,0.00,24.84,29.05,31.61,14.20,47.52,1002.94,2029.05,3475.29,3138.88,3566.00,599.99,584.46,1.75,0000 0000 0000 0000 000000
2016-08-23 11:02:30,0.01,0.01,0.00,24.85,29.03,31.60,14.28,47.37,1002.94,2029.06,3475.01,3138.51,3566.00,600.17,584.53,1.80,0000 0000 0000 0000 000000
2016-08-23 11:07:31,0.01,0.01,0.00,24.85,29.02,31.60,14.16,47.33,1002.94,2029.05,3474.99,3138.08,3565.96,599.98,584.37,1.85,0000 0000 0000 0000 000000
2016-08-23 11:12:33,0.00,0.02,0.00,24.84,29.02,31.61,14.25,47.34,1002.94,2029.06,3474.94,3138.03,3565.83,600.05,584.45,1.90,0000 0000 0000 0000 000000
2016-08-23 11:17:34,0.01,0.02,0.00,24.82,29.02,31.61,14.28,47.36,1002.94,2029.11,3474.92,3138.04,3565.78,600.18,584.59,1.95,0000 0000 0000 0000 000000
2016-08-23 11:22:36,0.02,0.02,0.00,24.80,29.02,31.62,14.19,47.29,1002.89,2029.20,3474.59,3138.02,3565.47,599.93,584.37,2.00,0000 0000 0000 0000 000000
2016-08-23 11:27:37,0.01,0.02,0.00,24.78,29.01,31.61,14.28,47.29,1002.76,2029.18,3474.14,3138.01,3565.11,600.04,584.52,2.05,0000 0000 0000 0000 000000
2016-08-23 11:32:38,0.03,0.02,0.00,24.77,29.00,31.61,14.23,47.33,1002.57,2029.48,3474.17,3138.02,3565.21,599.95,584.26,2.10,0000 0000 0000 0000 000000
2016-08-23 11:37:40,0.01,0.02,0.00,24.77,29.00,31.61,14.18,47.22,1002.49,2029.61,3474.06,3138.01,3565.06,600.13,584.36,2.15,0000 0000 0000 0000 000000
2016-08-23 11:42:41,-0.02,0.02,0.00,24.77,29.00,31.61,14.28,47.30,1002.49,2029.49,3474.00,3138.00,3565.00,600.11,584.33,2.20,0000 0000 0000 0000 000000
2016-08-23 11:47:43,0.01,0.02,0.00,24.75,29.00,31.61,14.24,47.38,1002.47,2029.51,3474.00,3137.99,3565.00,600.24,584.37,2.25,0000 0000 0000 0000 000000
2016-08-23 11:52:44,-0.02,0.02,0.00,24.72,29.00,31.62,14.21,47.32,1002.48,2029.34,3473.96,3137.98,3564.98,600.35,584.67,2.30,0000 0000 0000 0000 000000
2016-08-23 11:57:45,0.01,0.02,0.00,24.73,28.99,31.60,14.20,47.27,1002.47,2029.39,3473.85,3137.97,3564.94,600.38,584.61,2.35,0000 0000 0000 0000 000000
2016-08-23 12:02:46,0.03,0.02,0.00,24.72,28.97,31.62,14.27,47.33,1002.47,2029.52,3473.32,3137.80,3564.45,599.88,584.21,2.41,0000 0000 0000 0000 000000
2016-08-23 12:07:48,0.01,0.02,0.00,24.71,28.97,31.61,14.23,47.29,1002.46,2029.41,3473.01,3137.28,3564.04,600.16,584.50,2.46,0000 0000 0000 0000 000000
2016-08-23 12:12:49,0.01,0.02,0.00,24.72,28.97,31.61,14.23,47.33,1002.46,2029.59,3473.00,3137.03,3564.00,600.17,584.50,2.51,0000 0000 0000 0000 000000
2016-08-23 12:17:50,0.02,0.02,0.00,24.70,28.97,31.62,14.28,47.30,1002.46,2029.67,3472.98,3137.01,3564.00,600.14,584.51,2.56,0000 0000 0000 0000 000000
2016-08-23 12:22:51,0.01,0.02,0.00,24.70,28.97,31.61,14.27,47.25,1002.47,2029.82,3472.91,3137.00,3563.98,600.16,584.62,2.61,0000 0000 0000 0000 000000
2016-08-23 12:27:53,0.02,0.02,0.00,24.68,28.96,31.60,14.15,47.27,1002.48,2029.85,3472.36,3137.00,3563.86,599.91,584.45,2.66,0000 0000 0000 0000 000000
2016-08-23 12:32:54,0.01,0.02,0.00,24.67,28.95,31.61,14.21,47.33,1002.47,2029.91,3472.09,3137.00,3563.51,599.83,584.34,2.71,0000 0000 0000 0000 000000
2016-08-23 12:37:56,0.01,0.02,0.00,24.67,28.95,31.59,14.21,47.27,1002.46,2029.95,3472.03,3136.98,3563.15,599.95,584.39,2.76,0000 0000 0000 0000 000000
2016-08-23 12:42:57,0.00,0.02,0.00,24.66,28.95,31.59,14.20,47.32,1002.46,2029.92,3472.00,3136.97,3563.01,599.97,584.44,2.81,0000 0000 0000 0000 000000
2016-08-23 12:47:59,0.01,0.03,0.00,24.65,28.95,31.59,14.31,47.38,1002.46,2029.93,3471.98,3136.63,3563.00,600.11,584.62,2.86,0000 0000 0000 0000 000000
2016-08-23 12:53:00,0.01,0.03,0.00,24.62,28.95,31.57,14.17,47.29,1002.46,2029.94,3471.90,3136.23,3562.97,599.80,584.38,2.91,0000 0000 0000 0000 000000
2016-08-23 12:58:02,0.00,0.03,0.00,24.62,28.94,31.58,14.15,47.36,1002.46,2029.98,3471.72,3136.17,3562.96,599.76,584.36,2.96,0000 0000 0000 0000 000000